Regional Weather Roundup
Issued by NWS

Home | Current Version | Previous Version | Graphics & Text | Print | Product List | Glossary Off
Versions: 1 2 3 4 5 6 7 8 9 10 11 12 13 14 15 16 17 18 19 20 21 22 23 24 25 26 27 28 29 30 31 32 33 34 35 36 37 38 39 40 41 42 43 44 45 46 47 48 49 50

000
ASUS43 KLOT 280312
RWRIL

ILLINOIS REGIONAL WEATHER ROUNDUP
NATIONAL WEATHER SERVICE CHICAGO/ROMEOVILLE IL
1000 PM CDT WED MAY 27 2015

NOTE: "FAIR" INDICATES FEW OR NO CLOUDS BELOW 12,000 FEET WITH NO
SIGNIFICANT WEATHER AND/OR OBSTRUCTIONS TO VISIBILITY.

* THESE STATIONS ARE NOT UNDER NWS QUALITY CONTROL. THEY ALSO MAY NOT
  REPORT WEATHER SUCH AS PRECIPITATION OR FOG.

ILZ001-002-007-009-015-016-024-280400-
NORTHWEST ILLINOIS

CITY           SKY/WX    TMP DP  RH WIND       PRES   REMARKS
MOLINE         CLEAR     64  57  78 CALM      30.09R
STERLING*      CLEAR     64  61  88 CALM      30.11R
SAVANNA*       CLEAR     66  60  81 CALM      30.10R
$$

ILZ003-004-008-010-011-017-018-280400-
NORTH CENTRAL ILLINOIS

CITY           SKY/WX    TMP DP  RH WIND       PRES   REMARKS
ROCKFORD       PTCLDY    65  57  75 S3        30.12R
FREEPORT*      CLEAR     62  58  86 S5        30.12R
ROCHELLE*      CLEAR     63  59  88 CALM      30.12R
DE KALB*       CLEAR     62  54  76 CALM      30.12R
PERU*          CLEAR     67  57  69 CALM      30.12R
$$

ILZ005-006-012>014-019>023-280400-
NORTHEAST ILLINOIS

CITY           SKY/WX    TMP DP  RH WIND       PRES   REMARKS
CHICAGO-OHARE  CLEAR     65  54  67 E3        30.10R
CHICAGO-MIDWAY CLEAR     68  55  63 E5        30.11R
AURORA         CLEAR     61  55  81 CALM      30.12R
LANSING*       CLEAR     62  55  75 E3        30.13R
JOLIET*        CLEAR     63  58  85 CALM      30.12R
WAUKEGAN       CLEAR     57  55  93 S3        30.10R
DUPAGE AIRPORT CLEAR     61  56  83 CALM      30.11R
KANKAKEE*      CLEAR     63  58  84 CALM      30.13R
WHEELING       CLEAR     61  55  81 SE3       30.12R
MORRIS*        CLEAR     66  56  70 CALM      30.10R
ROMEOVILLE*    CLEAR     64  55  72 S3        30.12R
NORTHERLY ISL    N/A     60  54  80 CALM        N/A
$$

LMZ740>746-280400-
SOUTHERN LAKE MICHIGAN

STATION/POSITION SKY/WX   TEMP    WIND        PRES    VSBY  WAVE
                          AIR SEA DIR/SP/G                  HT/PER
                          (F)     (DEG/KT/KT) (MB)    (MI)  (FT/S)
SOUTHERN BUOY              44 38  180/  6/  6 1020.1R         0
HARRISON CRIB              62      70/  5/  5   N/A
BURNHAM HARBOR             60      CALM  /  2   N/A
BURNS HARBOR               62      80/  5/  6 1020.0R
MICHIGAN CITY              61      20/  4/  4   N/A
MICHIGAN CITY 6N           56 53  120/  2/  4   N/A           1
ST. JOSEPH                 55 56  340/  2/  4   N/A           1/ 3
$$

ILZ025>027-034>036-040-047-049-050-058-095>099-280400-
WEST-CENTRAL ILLINOIS

CITY           SKY/WX    TMP DP  RH WIND       PRES   REMARKS
QUINCY         PTCLDY    69  58  67 SE5       30.12R
GALESBURG*     CLEAR     64  58  81 CALM      30.12R
MACOMB*        PTCLDY    64  60  87 CALM      30.13R
JACKSONVILLE*  CLEAR     68  62  79 CALM      30.12R
PITTSFIELD*    PTCLDY    69  60  73 CALM      30.13R
$$

ILZ028>032-037-038-041>044-048-051>054-059>061-280400-
CENTRAL ILLINOIS

CITY           SKY/WX    TMP DP  RH WIND       PRES   REMARKS
PONTIAC        CLEAR     64  59  82 NE3       30.13R
BLOOMINGTON    CLEAR     67  57  70 CALM      30.14R
DECATUR        CLEAR     68  58  70 CALM      30.12R
PEORIA         CLEAR     68  57  68 CALM      30.12R
LACON*         CLEAR     63  58  82 CALM      30.11R
LINCOLN*       CLEAR     67  58  70 CALM      30.10R
SPRINGFIELD    CLEAR     66  59  78 CALM      30.12R
TAYLORVILLE    CLEAR     63  61  94 CALM      30.12R
$$

ILZ033-039-045-046-055>057-062-063-280400-
EAST-CENTRAL ILLINOIS

CITY           SKY/WX    TMP DP  RH WIND       PRES   REMARKS
CHAMPAIGN      CLEAR     64  55  72 N8        30.12R
DANVILLE*      CLEAR     65  56  73 N6        30.10R
RANTOUL*       CLEAR     68  56  67 N3        30.13R
PARIS*         CLEAR     65  56  72 CALM      30.12R
$$

ILZ079-100>102-280400-
SOUTHWEST ILLINOIS

CITY           SKY/WX    TMP DP  RH WIND       PRES   REMARKS
ALTON          CLEAR     68  63  83 N7        30.11R
BELLEVILLE     PTCLDY    68  63  83 N2        30.09R
CAHOKIA*       PTCLDY    69  60  73 CALM      30.10R
SPARTA*        MOCLDY    71  63  76 CALM      30.11R
$$

ILZ064>066-069>071-074>076-080>082-084>086-088>090-092>094-280400-
SOUTH-CENTRAL ILLINOIS

CITY           SKY/WX    TMP DP  RH WIND       PRES   REMARKS
CARBONDALE     PTCLDY    71  67  87 S8        30.10R
CAIRO*         CLOUDY    71  68  92 S8        30.12R
EFFINGHAM*     CLEAR     66  58  76 CALM      30.13R
MARION         MOCLDY    72  68  88 S7        30.11S
MT. VERNON     MOCLDY    72  63  73 CALM      30.11R
CENTRALIA*     PTCLDY    65  61  86 CALM      30.10S
SALEM*         PTCLDY    69  61  74 N3        30.11R
METROPOLIS*    MOCLDY    71  69  95 S3        30.12S
$$

ILZ067-068-072-073-078-083-087-091-280400-
SOUTHEAST ILLINOIS

CITY           SKY/WX    TMP DP  RH WIND       PRES   REMARKS
LAWRENCEVILLE  CLOUDY    73  64  73 S9        30.11R
FLORA*         MOCLDY    72  62  71 NE3       30.11R
FAIRFIELD*     MOCLDY    73  66  79 S6        30.09S
HARRISBURG*    CLOUDY    71  68  90 S3        30.13R
ROBINSON*      MOCLDY    75  58  55 NW5       30.11R
CARMI*         CLOUDY    70  63  78 S7        30.11R
$$

ABBREVIATIONS USED IN REMARKS
   TC - TEMPERATURE IN CELSIUS
  WCI - WIND CHILL INDEX
   HX - HEAT INDEX
  VSB - VISIBILITY
$$



USA.gov is the U.S. government's official web portal to all federal, state and local government web resources and services.